weather.gov     
National Weather Service

Regional Weather Roundup
NWS Homepage
This page is being discontinued on March 12, 2014.
The same data is available at this site. Please update your bookmarks.
Thank you, and we apologize for the inconvenience.
Please send an email to SR-SRH.Webmaster@noaa.gov with any concerns.


Current Version
Previous Version:    01  02  03  04  05  06  07  08  09  10  11  12  13  14  15  16  17  18  19  20  21  22  23  24  25  26  27  28  29  30  
   31  32  33  34  35  36  37  38  39  40  41  42  43  44  45  46  47  48  49  50  51  52  53  
[Printable]
330
ASUS43 KLMK 252110
RWRKY
KENTUCKY REGIONAL WEATHER ROUNDUP
NATIONAL WEATHER SERVICE LOUISVILLE KY
500 PM EDT SAT OCT 25 2014

NOTE "FAIR" INDICATES FEW OR NO CLOUDS BELOW 12,000 FEET
WITH NO SIGNIFICANT WEATHER AND/OR OBSTRUCTIONS TO VISIBILITY.

KYZ001>023-026-027-061>063-070>075-252200-
WESTERN AND SOUTH CENTRAL KENTUCKY

CITY           SKY/WX    TMP DP  RH WIND       PRES   REMARKS
PADUCAH        SUNNY     80  61  52 W7        29.99S
HENDERSON      SUNNY    N/A N/A N/A NW6       29.98R
OWENSBORO      SUNNY     78  59  52 W9        29.98S
HOPKINSVILLE   MOSUNNY   77  63  62 W13       29.99F HAZE
BOWLING GREEN  SUNNY     78  60  53 W8        29.99S
GLASGOW        SUNNY     75  60  59 W6        29.98F
$$

KYZ024-025-028>034-038-045-046-053-252200-
NORTH CENTRAL KENTUCKY

CITY           SKY/WX    TMP DP  RH WIND       PRES   REMARKS
LOUISVILLE/SDF MOSUNNY   77  58  51 SW12      29.96R
LOUISVILLE/LOU SUNNY     75  59  57 W6        29.97R
FORT KNOX      SUNNY     75  58  55 W12       29.97R
$$

KYZ035>037-039>044-047>052-055>060-089>105-252200-
NORTHEAST KENTUCKY

CITY           SKY/WX    TMP DP  RH WIND       PRES   REMARKS
LEXINGTON      SUNNY     74  58  57 W10       29.96R
COVINGTON      MOSUNNY   74  53  48 W12       29.92S
FRANKFORT      SUNNY     72  58  61 W9        29.96R
$$

KYZ054-064>069-076>088-106>120-252200-
SOUTHEAST KENTUCKY

CITY           SKY/WX    TMP DP  RH WIND       PRES   REMARKS
JACKSON        MOSUNNY   68  52  56 VRB3      29.98F
LONDON         PTSUNNY   69  53  56 W9        30.01R
SOMERSET       SUNNY     68  54  60 W6        30.01S
MIDDLESBORO    CLOUDY    69  51  53 W3        30.01S
MONTICELLO     MOCLDY    71  57  61 SW7       30.02R HAZE
$$





U.S. Dept. of Commerce
NOAA National Weather Service
1325 East West Highway
Silver Spring, MD 20910
E-mail: w-nws.webmaster@noaa.gov
Page last modified: May 16, 2007
NATIONAL WEATHER SERVICE: for Safety, for Work, for Fun - FOR LIFE